Time,TemperatureF,DewpointF,PressureIn,WindDirection,WindDirectionDegrees,WindSpeedMPH,WindSpeedGustMPH,Humidity,HourlyPrecipIn,Conditions,Clouds,dailyrainin,SolarRadiationWatts/m^2,SoftwareType,DateUTC
2013-03-05 00:11:00,52.0,43.0,-100.00,ESE,104,12.0,15.0,70,0.00,,,0.00,1.000000,,2013-03-05 08:11:00,
2013-03-05 00:21:00,52.0,43.0,-100.00,ESE,104,12.0,15.0,70,0.00,,,0.00,1.000000,,2013-03-05 08:21:00,
2013-03-05 00:31:00,52.0,43.0,-100.00,ESE,104,12.0,15.0,70,0.00,,,0.00,1.000000,,2013-03-05 08:31:00,
2013-03-05 00:41:00,52.0,43.0,-100.00,ESE,104,12.0,15.0,70,0.00,,,0.00,1.000000,,2013-03-05 08:41:00,
2013-03-05 01:11:00,52.0,44.0,-100.00,East,95,15.0,19.0,74,0.00,,,0.00,0.000000,,2013-03-05 09:11:00,
2013-03-05 01:21:00,52.0,44.0,-100.00,East,95,15.0,19.0,74,0.00,,,0.00,0.000000,,2013-03-05 09:21:00,
2013-03-05 02:11:00,51.0,44.0,-100.00,East,98,13.0,18.0,78,-99.99,,,0.00,0.000000,,2013-03-05 10:11:00,
2013-03-05 02:21:00,51.0,44.0,-100.00,East,98,13.0,18.0,78,-99.99,,,0.00,0.000000,,2013-03-05 10:21:00,
2013-03-05 03:11:00,50.0,43.0,-100.00,SW,226,5.0,20.0,76,0.00,,,0.00,0.000000,,2013-03-05 11:11:00,
2013-03-05 03:22:00,50.0,43.0,-100.00,SW,226,5.0,20.0,76,0.00,,,0.00,0.000000,,2013-03-05 11:22:00,
2013-03-05 03:32:00,50.0,43.0,-100.00,SW,226,5.0,20.0,76,0.00,,,0.00,0.000000,,2013-03-05 11:32:00,
2013-03-05 03:41:00,50.0,43.0,-100.00,SW,226,5.0,20.0,76,0.00,,,0.00,0.000000,,2013-03-05 11:41:00,
2013-03-05 04:11:00,47.0,42.0,-100.00,WSW,243,9.0,14.0,84,0.00,,,0.00,0.000000,,2013-03-05 12:11:00,
2013-03-05 04:22:00,47.0,42.0,-100.00,WSW,243,9.0,14.0,84,0.00,,,0.00,0.000000,,2013-03-05 12:22:00,
2013-03-05 04:32:00,47.0,42.0,-100.00,WSW,243,9.0,14.0,84,0.00,,,0.00,0.000000,,2013-03-05 12:32:00,
2013-03-05 04:42:00,47.0,42.0,-100.00,WSW,243,9.0,14.0,84,0.00,,,0.00,0.000000,,2013-03-05 12:42:00,
2013-03-05 05:11:00,45.0,43.0,-100.00,SW,234,3.0,11.0,91,0.00,,,0.00,0.000000,,2013-03-05 13:11:00,
2013-03-05 05:21:00,45.0,43.0,-100.00,SW,234,3.0,11.0,91,0.00,,,0.00,0.000000,,2013-03-05 13:21:00,
2013-03-05 05:31:00,45.0,43.0,-100.00,SW,234,3.0,11.0,91,0.00,,,0.00,0.000000,,2013-03-05 13:31:00,
2013-03-05 05:42:00,45.0,43.0,-100.00,SW,234,3.0,11.0,91,0.00,,,0.00,0.000000,,2013-03-05 13:42:00,
2013-03-05 06:11:00,44.0,42.0,-100.00,WSW,249,6.0,7.0,94,0.00,,,0.00,0.000000,,2013-03-05 14:11:00,
2013-03-05 06:21:00,44.0,42.0,-100.00,WSW,249,6.0,7.0,94,0.00,,,0.00,0.000000,,2013-03-05 14:21:00,
2013-03-05 06:31:00,44.0,42.0,-100.00,WSW,249,6.0,7.0,94,0.00,,,0.00,0.000000,,2013-03-05 14:31:00,
2013-03-05 06:41:00,44.0,42.0,-100.00,WSW,249,6.0,7.0,94,0.00,,,0.00,0.000000,,2013-03-05 14:41:00,
2013-03-05 07:11:00,43.0,41.0,-100.00,ESE,121,4.0,7.0,94,0.00,,,0.00,7.000000,,2013-03-05 15:11:00,
2013-03-05 07:21:00,43.0,41.0,-100.00,ESE,121,4.0,7.0,94,0.00,,,0.00,7.000000,,2013-03-05 15:21:00,
2013-03-05 07:32:00,43.0,41.0,-100.00,ESE,121,4.0,7.0,94,0.00,,,0.00,7.000000,,2013-03-05 15:32:00,
2013-03-05 07:42:00,43.0,41.0,-100.00,ESE,121,4.0,7.0,94,0.00,,,0.00,7.000000,,2013-03-05 15:42:00,
2013-03-05 08:11:00,44.0,43.0,-100.00,ENE,69,2.0,12.0,95,0.00,,,0.00,76.000000,,2013-03-05 16:11:00,
2013-03-05 08:21:00,44.0,43.0,-100.00,ENE,69,2.0,12.0,95,0.00,,,0.00,76.000000,,2013-03-05 16:21:00,
2013-03-05 08:32:00,44.0,43.0,-100.00,ENE,69,2.0,12.0,95,0.00,,,0.00,76.000000,,2013-03-05 16:32:00,
2013-03-05 08:41:00,44.0,43.0,-100.00,ENE,69,2.0,12.0,95,0.00,,,0.00,76.000000,,2013-03-05 16:41:00,
2013-03-05 09:11:00,47.0,45.0,-100.00,West,278,2.0,11.0,92,0.00,,,0.00,342.000000,,2013-03-05 17:11:00,
2013-03-05 09:21:00,47.0,45.0,-100.00,West,278,2.0,11.0,92,0.00,,,0.00,342.000000,,2013-03-05 17:21:00,
2013-03-05 09:32:00,47.0,45.0,-100.00,West,278,2.0,11.0,92,0.00,,,0.00,342.000000,,2013-03-05 17:32:00,
2013-03-05 09:41:00,47.0,45.0,-100.00,West,278,2.0,11.0,92,0.00,,,0.00,342.000000,,2013-03-05 17:41:00,
2013-03-05 10:11:00,50.0,47.0,-100.00,West,275,10.0,14.0,88,0.00,,,0.00,459.000000,,2013-03-05 18:11:00,
2013-03-05 10:21:00,50.0,47.0,-100.00,West,275,10.0,14.0,88,0.00,,,0.00,459.000000,,2013-03-05 18:21:00,
2013-03-05 10:32:00,50.0,47.0,-100.00,West,275,10.0,14.0,88,0.00,,,0.00,459.000000,,2013-03-05 18:32:00,
2013-03-05 10:41:00,50.0,47.0,-100.00,West,275,10.0,14.0,88,0.00,,,0.00,459.000000,,2013-03-05 18:41:00,
2013-03-05 11:11:00,49.0,46.0,-100.00,West,263,7.0,14.0,90,0.00,,,0.00,203.000000,,2013-03-05 19:11:00,
2013-03-05 11:21:00,49.0,46.0,-100.00,West,263,7.0,14.0,90,0.00,,,0.00,203.000000,,2013-03-05 19:21:00,
2013-03-05 11:31:00,49.0,46.0,-100.00,West,263,7.0,14.0,90,0.00,,,0.00,203.000000,,2013-03-05 19:31:00,
2013-03-05 11:41:00,49.0,46.0,-100.00,West,263,7.0,14.0,90,0.00,,,0.00,203.000000,,2013-03-05 19:41:00,
2013-03-05 12:11:00,53.0,47.0,-100.00,West,275,8.0,18.0,81,0.00,,,0.00,488.000000,,2013-03-05 20:11:00,
2013-03-05 12:21:00,53.0,47.0,-100.00,West,275,8.0,18.0,81,0.00,,,0.00,488.000000,,2013-03-05 20:21:00,
2013-03-05 12:32:00,53.0,47.0,-100.00,West,275,8.0,18.0,81,0.00,,,0.00,488.000000,,2013-03-05 20:32:00,
2013-03-05 12:41:00,53.0,47.0,-100.00,West,275,8.0,18.0,81,0.00,,,0.00,488.000000,,2013-03-05 20:41:00,
2013-03-05 13:11:00,58.0,47.0,-100.00,West,270,9.0,14.0,66,0.00,,,0.00,791.000000,,2013-03-05 21:11:00,
2013-03-05 13:21:00,58.0,47.0,-100.00,West,270,9.0,14.0,66,0.00,,,0.00,791.000000,,2013-03-05 21:21:00,
2013-03-05 13:31:00,58.0,47.0,-100.00,West,270,9.0,14.0,66,0.00,,,0.00,791.000000,,2013-03-05 21:31:00,
2013-03-05 13:41:00,58.0,47.0,-100.00,West,270,9.0,14.0,66,0.00,,,0.00,791.000000,,2013-03-05 21:41:00,
2013-03-05 14:11:00,60.0,45.0,-100.00,West,276,17.0,24.0,58,0.00,,,0.00,672.000000,,2013-03-05 22:11:00,
2013-03-05 14:21:00,60.0,45.0,-100.00,West,276,17.0,24.0,58,0.00,,,0.00,672.000000,,2013-03-05 22:21:00,
2013-03-05 14:32:00,60.0,45.0,-100.00,West,276,17.0,24.0,58,0.00,,,0.00,672.000000,,2013-03-05 22:32:00,
2013-03-05 14:41:00,60.0,45.0,-100.00,West,276,17.0,24.0,58,0.00,,,0.00,672.000000,,2013-03-05 22:41:00,
2013-03-05 15:11:00,55.0,47.0,-100.00,WSW,249,16.0,27.0,73,0.00,,,0.00,439.000000,,2013-03-05 23:11:00,
2013-03-05 15:21:00,55.0,47.0,-100.00,WSW,249,16.0,27.0,73,0.00,,,0.00,439.000000,,2013-03-05 23:21:00,
2013-03-05 15:32:00,55.0,47.0,-100.00,WSW,249,16.0,27.0,73,0.00,,,0.00,439.000000,,2013-03-05 23:32:00,
2013-03-05 15:41:00,55.0,47.0,-100.00,WSW,249,16.0,27.0,73,0.00,,,0.00,439.000000,,2013-03-05 23:41:00,
2013-03-05 16:11:00,52.0,45.0,-100.00,WSW,238,16.0,23.0,78,0.00,,,-99.99,476.000000,,2013-03-06 00:11:00,
2013-03-05 16:21:00,52.0,45.0,-100.00,WSW,238,16.0,23.0,78,0.00,,,-99.99,476.000000,,2013-03-06 00:21:00,
2013-03-05 16:32:00,52.0,45.0,-100.00,WSW,238,16.0,23.0,78,0.00,,,-99.99,476.000000,,2013-03-06 00:32:00,
2013-03-05 16:41:00,52.0,45.0,-100.00,WSW,238,16.0,23.0,78,0.00,,,-99.99,476.000000,,2013-03-06 00:41:00,
2013-03-05 17:11:00,51.0,46.0,-100.00,SW,233,14.0,21.0,82,0.00,,,0.00,258.000000,,2013-03-06 01:11:00,
2013-03-05 17:21:00,51.0,46.0,-100.00,SW,233,14.0,21.0,82,0.00,,,0.00,258.000000,,2013-03-06 01:21:00,
2013-03-05 17:31:00,51.0,46.0,-100.00,SW,233,14.0,21.0,82,0.00,,,0.00,258.000000,,2013-03-06 01:31:00,
2013-03-05 17:41:00,51.0,46.0,-100.00,SW,233,14.0,21.0,82,0.00,,,0.00,258.000000,,2013-03-06 01:41:00,
2013-03-05 18:11:00,50.0,45.0,-100.00,SSW,211,6.0,18.0,84,0.00,,,0.00,83.000000,,2013-03-06 02:11:00,
2013-03-05 18:21:00,50.0,45.0,-100.00,SSW,211,6.0,18.0,84,0.00,,,0.00,83.000000,,2013-03-06 02:21:00,
2013-03-05 18:31:00,50.0,45.0,-100.00,SSW,211,6.0,18.0,84,0.00,,,0.00,83.000000,,2013-03-06 02:31:00,
2013-03-05 18:41:00,50.0,45.0,-100.00,SSW,211,6.0,18.0,84,0.00,,,0.00,83.000000,,2013-03-06 02:41:00,
2013-03-05 19:11:00,50.0,46.0,-100.00,West,262,7.0,10.0,86,0.00,,,0.00,1.000000,,2013-03-06 03:11:00,
2013-03-05 19:21:00,50.0,46.0,-100.00,West,262,7.0,10.0,86,0.00,,,0.00,1.000000,,2013-03-06 03:21:00,
2013-03-05 19:31:00,50.0,46.0,-100.00,West,262,7.0,10.0,86,0.00,,,0.00,1.000000,,2013-03-06 03:31:00,
2013-03-05 19:41:00,50.0,46.0,-100.00,West,262,7.0,10.0,86,0.00,,,0.00,1.000000,,2013-03-06 03:41:00,
2013-03-05 20:11:00,48.0,46.0,-100.00,SW,235,8.0,13.0,92,0.00,,,0.00,0.000000,,2013-03-06 04:11:00,
2013-03-05 20:21:00,48.0,46.0,-100.00,SW,235,8.0,13.0,92,0.00,,,0.00,0.000000,,2013-03-06 04:21:00,
2013-03-05 20:32:00,48.0,46.0,-100.00,SW,235,8.0,13.0,92,0.00,,,0.00,0.000000,,2013-03-06 04:32:00,
2013-03-05 20:41:00,48.0,46.0,-100.00,SW,235,8.0,13.0,92,0.00,,,0.00,0.000000,,2013-03-06 04:41:00,
2013-03-05 21:11:00,47.0,45.0,-100.00,West,270,8.0,11.0,93,0.00,,,0.00,0.000000,,2013-03-06 05:11:00,
2013-03-05 21:22:00,47.0,45.0,-100.00,West,270,8.0,11.0,93,0.00,,,0.00,0.000000,,2013-03-06 05:22:00,
2013-03-05 21:32:00,47.0,45.0,-100.00,West,270,8.0,11.0,93,0.00,,,0.00,0.000000,,2013-03-06 05:32:00,
2013-03-05 21:42:00,47.0,45.0,-100.00,West,270,8.0,11.0,93,0.00,,,0.00,0.000000,,2013-03-06 05:42:00,
2013-03-05 22:11:00,46.0,44.0,-100.00,WSW,247,10.0,14.0,94,0.00,,,0.00,0.000000,,2013-03-06 06:11:00,
2013-03-05 22:22:00,46.0,44.0,-100.00,WSW,247,10.0,14.0,94,0.00,,,0.00,0.000000,,2013-03-06 06:22:00,
2013-03-05 22:31:00,46.0,44.0,-100.00,WSW,247,10.0,14.0,94,0.00,,,0.00,0.000000,,2013-03-06 06:31:00,
2013-03-05 22:41:00,46.0,44.0,-100.00,WSW,247,10.0,14.0,94,0.00,,,0.00,0.000000,,2013-03-06 06:41:00,
2013-03-05 23:11:00,45.0,43.0,-100.00,West,259,10.0,15.0,94,0.00,,,0.00,0.000000,,2013-03-06 07:11:00,
2013-03-05 23:22:00,45.0,43.0,-100.00,West,259,10.0,15.0,94,0.00,,,0.00,0.000000,,2013-03-06 07:22:00,
2013-03-05 23:31:00,45.0,43.0,-100.00,West,259,10.0,15.0,94,0.00,,,0.00,0.000000,,2013-03-06 07:31:00,
2013-03-05 23:42:00,45.0,43.0,-100.00,West,259,10.0,15.0,94,0.00,,,0.00,0.000000,,2013-03-06 07:42:00,